Weather Roundup
Issued by NWS Corpus Christi, TX

Home | Current Version | Previous Version | Text Only | Print | Product List | Glossary On
Versions: 1 2 3 4 5 6 7 8 9 10 11 12 13 14 15 16 17 18 19 20 21 22 23 24 25 26 27 28 29 30 31 32 33 34 35 36 37 38 39 40 41 42 43 44 45 46 47 48 49 50
000
ASUS44 KCRP 261310
HRRCRP

SOUTH TEXAS REGIONAL WEATHER ROUNDUP
NATIONAL WEATHER SERVICE CORPUS CHRISTI TX
800 AM CDT SAT JUL 26 2014


TXZ229>244-261400-
...CORPUS CHRISTI AREA OBSERVATIONS...

CITY           SKY/WX    TMP DP  RH WIND       PRES   REMARKS
CORPUS CHRISTI MOSUNNY   78  76  93 S8        30.00R
NAS CORPUS CHR SUNNY     82  78  88 S12       30.00R HX  91
ROCKPORT       MOSUNNY   82  77  84 S8        30.01R HX  90
KINGSVILLE NAS SUNNY     78  77  96 SE6       30.00R
ALICE          SUNNY     77  75  93 S8        29.99S
FALFURRIAS     SUNNY     61  61 100 SE5       30.00R
$$

...VICTORIA AREA OBSERVATIONS...

CITY           SKY/WX    TMP DP  RH WIND       PRES   REMARKS
VICTORIA       SUNNY     81  78  91 SE5       30.03R
BEEVILLE       FAIR      78  77  97 S6        30.01R
PLEASANTON     SUNNY     76  73  88 SE3       30.02R
SAN ANTONIO    SUNNY     78  73  84 SE7       30.03R
$$

...LAREDO AREA OBSERVATIONS...

CITY           SKY/WX    TMP DP  RH WIND       PRES   REMARKS
LAREDO         SUNNY     79  72  79 SE13      30.00R
COTULLA          N/A     77  71  82 E6        29.99R
DEL RIO        SUNNY     78  69  73 E14       29.97R
MCALLEN        MOSUNNY   81  77  88 SE8       29.99R
HEBBRONVILLE   SUNNY     77  73  87 SE8       30.02R
$$

...OTHER TEXAS OBSERVATIONS...

CITY           SKY/WX    TMP DP  RH WIND       PRES   REMARKS
BROWNSVILLE    SUNNY     81  78  91 SE7       30.00R
HOUSTON        PTSUNNY   80  76  87 S3        30.04R
COL. STATION   CLOUDY    78  75  90 S7        30.05R
AUSTIN         MOSUNNY   76  75  97 S6        30.03R FOG
WACO           SUNNY     79  73  82 S12       30.02R
FORT WORTH     MOSUNNY   81  71  71 S9        29.99R
WICHITA FALLS  SUNNY     78  68  71 S12       29.96R
LUBBOCK        MOSUNNY   75  59  57 SW10      30.06R
EL PASO        CLEAR     78  45  30 CALM      30.06R
$$

...MARINE OBSERVATIONS...

STATION/POSITION TIME  SKY/WX   TEMP    WIND        PRES    VSBY  WAVE   SWELL
                                AIR SEA DIR/SP/G                  HT/PER HT/PER
                 (UTC)          (F)     (DEG/KT/KT) (MB)    (MI)  (FT/S) (FT/S)
PORT ARANSAS     1300            81 84  180/ 16/ 17 1016.6R
BUOY 90 E PORT A 1300            84 83  170/ 10/ 12 1017.3R         3/ 5   2/ 5
BUOY 45 SE BAFFI 1300            83 81  190/ 14/ 16 1015.9R         3/ 5
BUOY 200 E PT IS 1300            84 85  190/  8/ 10 1017.3R         2/ 3   2/ 5
BUOY 15 E GALVES 1300               85  220/ 10/ 12 1017.2
$$


USA.gov is the U.S. government's official web portal to all federal, state and local government web resources and services.